| time (UTC) | temp F | wind direction | speed knots | gust knots | rain 1hr in | rain 24hr in | rain mn in | humidity % | barometer mb |
| 20260505011414 | 74 | 202 | 7.0 | 17.4 | 0.00 | 0.00 | 0.00 | 27 | 1002.4 |
| 20260505011327 | 74 | 180 | 7.0 | 17.4 | 0.00 | 0.00 | 0.00 | 26 | 1002.4 |
| 20260505010419 | 75 | 145 | 5.2 | 13.9 | 0.00 | 0.00 | 0.00 | 26 | 1002.4 |
| 20260505010316 | 75 | 140 | 7.0 | 13.9 | 0.00 | 0.00 | 0.00 | 26 | 1002.4 |
| 20260505005428 | 75 | 139 | 7.0 | 13.0 | 0.00 | 0.00 | 0.00 | 26 | 1002.5 |
| 20260505005320 | 75 | 220 | 5.2 | 13.0 | 0.00 | 0.00 | 0.00 | 26 | 1002.5 |
| 20260505004412 | 76 | 54 | 12.2 | 19.1 | 0.00 | 0.00 | 0.00 | 25 | 1002.4 |
| 20260505004324 | 76 | 63 | 10.4 | 19.1 | 0.00 | 0.00 | 0.00 | 25 | 1002.4 |
| 20260505003413 | 76 | 96 | 9.6 | 14.8 | 0.00 | 0.00 | 0.00 | 24 | 1002.3 |
| 20260505003326 | 76 | 100 | 9.6 | 14.8 | 0.00 | 0.00 | 0.00 | 24 | 1002.2 |
| 20260505002418 | 76 | 78 | 9.6 | 15.6 | 0.00 | 0.00 | 0.00 | 24 | 1002.3 |
| 20260505002314 | 76 | 76 | 8.7 | 15.6 | 0.00 | 0.00 | 0.00 | 24 | 1002.2 |
| 20260505001425 | 76 | 98 | 12.2 | 18.2 | 0.00 | 0.00 | 0.00 | 25 | 1002.2 |
| 20260505001318 | 76 | 84 | 13.0 | 18.2 | 0.00 | 0.00 | 0.00 | 25 | 1002.2 |
| 20260505000429 | 76 | 81 | 13.0 | 20.0 | 0.00 | 0.00 | 0.00 | 26 | 1002.3 |
| 20260505000322 | 76 | 80 | 14.8 | 20.0 | 0.00 | 0.00 | 0.00 | 26 | 1002.3 |
| 20260504235412 | 76 | 88 | 12.2 | 19.1 | 0.00 | 0.00 | 0.00 | 27 | 1002.3 |
| 20260504235325 | 76 | 75 | 12.2 | 18.2 | 0.00 | 0.00 | 0.00 | 26 | 1002.3 |
| 20260504234413 | 77 | 79 | 11.3 | 15.6 | 0.00 | 0.00 | 0.00 | 26 | 1002.3 |
| 20260504234327 | 77 | 90 | 11.3 | 15.6 | 0.00 | 0.00 | 0.00 | 26 | 1002.3 |
| 20260504233419 | 77 | 74 | 6.1 | 13.0 | 0.00 | 0.00 | 0.00 | 26 | 1002.3 |
| 20260504233314 | 78 | 83 | 6.1 | 13.0 | 0.00 | 0.00 | 0.00 | 25 | 1002.3 |
| 20260504232425 | 78 | 59 | 8.7 | 12.2 | 0.00 | 0.00 | 0.00 | 24 | 1002.1 |
| 20260504232338 | 78 | 63 | 8.7 | 12.2 | 0.00 | 0.00 | 0.00 | 24 | 1002.1 |
| 20260504231409 | 78 | 88 | 7.8 | 13.0 | 0.00 | 0.00 | 0.00 | 23 | 1002.0 |
| 20260504231322 | 78 | 79 | 8.7 | 13.0 | 0.00 | 0.00 | 0.00 | 24 | 1002.0 |
| 20260504230413 | 79 | 82 | 6.1 | 13.9 | 0.00 | 0.00 | 0.00 | 23 | 1001.8 |
| 20260504230311 | 79 | 120 | 6.1 | 13.9 | 0.00 | 0.00 | 0.00 | 23 | 1001.8 |
| 20260504225421 | 80 | 88 | 5.2 | 8.7 | 0.00 | 0.00 | 0.00 | 21 | 1001.8 |
| 20260504225334 | 80 | 84 | 3.5 | 8.7 | 0.00 | 0.00 | 0.00 | 23 | 1001.7 |
| 20260504224424 | 80 | 239 | 0.9 | 2.6 | 0.00 | 0.00 | 0.00 | 20 | 1001.6 |
| 20260504224337 | 80 | 67 | 0.9 | 1.7 | 0.00 | 0.00 | 0.00 | 22 | 1001.6 |
| 20260504223425 | 80 | 154 | 0.9 | 7.0 | 0.00 | 0.00 | 0.00 | 21 | 1001.7 |
| 20260504223315 | 80 | 153 | 1.7 | 9.6 | 0.00 | 0.00 | 0.00 | 22 | 1001.7 |
| 20260504222428 | 81 | 81 | 7.0 | 12.2 | 0.00 | 0.00 | 0.00 | 21 | 1001.7 |
| 20260504222320 | 81 | 76 | 6.1 | 12.2 | 0.00 | 0.00 | 0.00 | 21 | 1001.8 |
| 20260504221431 | 82 | 80 | 7.0 | 11.3 | 0.00 | 0.00 | 0.00 | 20 | 1001.9 |
| 20260504221324 | 82 | 80 | 6.1 | 10.4 | 0.00 | 0.00 | 0.00 | 21 | 1002.0 |
| 20260504220418 | 82 | 48 | 0.9 | 7.8 | 0.00 | 0.00 | 0.00 | 21 | 1002.0 |
| 20260504220331 | 82 | 64 | 0.0 | 7.8 | 0.00 | 0.00 | 0.00 | 19 | 1002.0 |
| 20260504215420 | 83 | 78 | 4.3 | 11.3 | 0.00 | 0.00 | 0.00 | 20 | 1002.2 |
| 20260504215314 | 83 | 56 | 5.2 | 11.3 | 0.00 | 0.00 | 0.00 | 20 | 1002.2 |
| 20260504214425 | 83 | 65 | 1.7 | 7.0 | 0.00 | 0.00 | 0.00 | 19 | 1002.3 |
| 20260504214315 | 83 | 142 | 2.6 | 7.0 | 0.00 | 0.00 | 0.00 | 19 | 1002.3 |
| 20260504213428 | 82 | 331 | 2.6 | 7.8 | 0.00 | 0.00 | 0.00 | 23 | 1002.4 |
| 20260504213321 | 82 | 309 | 2.6 | 7.8 | 0.00 | 0.00 | 0.00 | 21 | 1002.4 |
| 20260504212413 | 81 | 28 | 3.5 | 7.8 | 0.00 | 0.00 | 0.00 | 21 | 1002.5 |
| 20260504212310 | 81 | 29 | 3.5 | 7.8 | 0.00 | 0.00 | 0.00 | 20 | 1002.5 |
| 20260504211420 | 81 | 12 | 4.3 | 8.7 | 0.00 | 0.00 | 0.00 | 21 | 1002.6 |
| 20260504211313 | 81 | 340 | 5.2 | 8.7 | 0.00 | 0.00 | 0.00 | 21 | 1002.6 |
| 20260504210425 | 81 | 29 | 4.3 | 9.6 | 0.00 | 0.00 | 0.00 | 22 | 1002.7 |
| 20260504210318 | 81 | 15 | 2.6 | 9.6 | 0.00 | 0.00 | 0.00 | 22 | 1002.7 |
| 20260504205411 | 81 | 333 | 6.1 | 9.6 | 0.00 | 0.00 | 0.00 | 22 | 1002.7 |
| 20260504205323 | 81 | 338 | 6.1 | 9.6 | 0.00 | 0.00 | 0.00 | 23 | 1002.7 |
| 20260504204415 | 81 | 13 | 3.5 | 8.7 | 0.00 | 0.00 | 0.00 | 22 | 1002.8 |
| 20260504204332 | 81 | 38 | 4.3 | 8.7 | 0.00 | 0.00 | 0.00 | 23 | 1002.8 |
| 20260504203421 | 82 | 18 | 6.1 | 7.8 | 0.00 | 0.00 | 0.00 | 22 | 1002.8 |
| 20260504203316 | 82 | 38 | 6.1 | 7.8 | 0.00 | 0.00 | 0.00 | 21 | 1002.8 |
| 20260504202427 | 82 | 30 | 3.5 | 9.6 | 0.00 | 0.00 | 0.00 | 20 | 1003.0 |
| 20260504202315 | 82 | 13 | 3.5 | 9.6 | 0.00 | 0.00 | 0.00 | 20 | 1003.0 |
| 20260504201426 | 83 | 346 | 5.2 | 13.0 | 0.00 | 0.00 | 0.00 | 19 | 1003.1 |
| 20260504201339 | 83 | 350 | 7.8 | 13.0 | 0.00 | 0.00 | 0.00 | 19 | 1003.1 |
| 20260504200429 | 84 | 328 | 5.2 | 9.6 | 0.00 | 0.00 | 0.00 | 20 | 1003.3 |
| 20260504200321 | 84 | 349 | 6.1 | 9.6 | 0.00 | 0.00 | 0.00 | 21 | 1003.3 |
| 20260504195417 | 83 | 301 | 3.5 | 9.6 | 0.00 | 0.00 | 0.00 | 18 | 1003.3 |
| 20260504195330 | 83 | 297 | 3.5 | 9.6 | 0.00 | 0.00 | 0.00 | 18 | 1003.3 |
| 20260504194421 | 83 | 197 | 7.8 | 13.0 | 0.00 | 0.00 | 0.00 | 17 | 1003.2 |
| 20260504194314 | 84 | 216 | 6.1 | 10.4 | 0.00 | 0.00 | 0.00 | 17 | 1003.3 |
| 20260504193446 | 85 | 283 | 1.7 | 7.0 | 0.00 | 0.00 | 0.00 | 17 | 1003.3 |
| 20260504193317 | 85 | 282 | 2.6 | 7.0 | 0.00 | 0.00 | 0.00 | 19 | 1003.4 |
| 20260504192427 | 86 | 145 | 5.2 | 14.8 | 0.00 | 0.00 | 0.00 | 18 | 1003.5 |
| 20260504192320 | 87 | 216 | 5.2 | 14.8 | 0.00 | 0.00 | 0.00 | 19 | 1003.5 |
| 20260504191413 | 85 | 228 | 9.6 | 12.2 | 0.00 | 0.00 | 0.00 | 23 | 1003.7 |
| 20260504191330 | 85 | 250 | 9.6 | 12.2 | 0.00 | 0.00 | 0.00 | 21 | 1003.7 |
| 20260504190422 | 84 | 146 | 3.5 | 13.9 | 0.00 | 0.00 | 0.00 | 19 | 1003.6 |
| 20260504190315 | 84 | 143 | 4.3 | 13.9 | 0.00 | 0.00 | 0.00 | 19 | 1003.7 |
| 20260504185424 | 85 | 234 | 4.3 | 12.2 | 0.00 | 0.00 | 0.00 | 21 | 1003.8 |
| 20260504185318 | 85 | 284 | 2.6 | 7.0 | 0.00 | 0.00 | 0.00 | 19 | 1003.8 |
| 20260504184429 | 85 | 239 | 4.3 | 13.9 | 0.00 | 0.00 | 0.00 | 21 | 1004.0 |
| 20260504184323 | 85 | 236 | 7.8 | 13.9 | 0.00 | 0.00 | 0.00 | 21 | 1004.0 |
| 20260504183415 | 84 | 180 | 7.0 | 13.0 | 0.00 | 0.00 | 0.00 | 20 | 1004.2 |
| 20260504183313 | 84 | 211 | 8.7 | 13.0 | 0.00 | 0.00 | 0.00 | 21 | 1004.2 |
| 20260504182423 | 83 | 225 | 7.0 | 12.2 | 0.00 | 0.00 | 0.00 | 22 | 1004.3 |
| 20260504182316 | 82 | 248 | 4.3 | 9.6 | 0.00 | 0.00 | 0.00 | 25 | 1004.3 |
| 20260504181427 | 81 | 227 | 6.1 | 12.2 | 0.00 | 0.00 | 0.00 | 23 | 1004.5 |
| 20260504181320 | 81 | 259 | 5.2 | 17.4 | 0.00 | 0.00 | 0.00 | 25 | 1004.6 |
| 20260504180423 | 81 | 242 | 13.0 | 17.4 | 0.00 | 0.00 | 0.00 | 23 | 1004.7 |
| 20260504180316 | 81 | 226 | 9.6 | 15.6 | 0.00 | 0.00 | 0.00 | 23 | 1004.7 |
| 20260504175426 | 82 | 266 | 6.1 | 8.7 | 0.00 | 0.00 | 0.00 | 21 | 1004.8 |
| 20260504175321 | 83 | 289 | 5.2 | 8.7 | 0.00 | 0.00 | 0.00 | 22 | 1004.9 |
| 20260504174411 | 84 | 260 | 2.6 | 8.7 | 0.00 | 0.00 | 0.00 | 20 | 1005.0 |
| 20260504174323 | 84 | 286 | 1.7 | 8.7 | 0.00 | 0.00 | 0.00 | 20 | 1005.0 |
| 20260504173435 | 85 | 304 | 7.0 | 11.3 | 0.00 | 0.00 | 0.00 | 22 | 1005.1 |
| 20260504173348 | 85 | 263 | 7.0 | 11.3 | 0.00 | 0.00 | 0.00 | 21 | 1005.1 |
| 20260504172418 | 84 | 309 | 10.4 | 13.9 | 0.00 | 0.00 | 0.00 | 22 | 1005.2 |
| 20260504172312 | 84 | 302 | 7.8 | 11.3 | 0.00 | 0.00 | 0.00 | 22 | 1005.2 |
| 20260504171423 | 85 | 205 | 6.1 | 13.0 | 0.00 | 0.00 | 0.00 | 20 | 1005.4 |
| 20260504171316 | 85 | 265 | 8.7 | 13.0 | 0.00 | 0.00 | 0.00 | 22 | 1005.4 |
| 20260504170428 | 85 | 312 | 6.1 | 13.0 | 0.00 | 0.00 | 0.00 | 23 | 1005.3 |
| 20260504170324 | 85 | 338 | 7.8 | 13.0 | 0.00 | 0.00 | 0.00 | 23 | 1005.4 |
| 20260504160416 | 82 | 263 | 7.0 | 13.9 | 0.00 | 0.00 | 0.00 | 26 | 1005.5 |
| 20260504160307 | 82 | 284 | 7.0 | 15.6 | 0.00 | 0.00 | 0.00 | 26 | 1005.6 |
| 20260504150422 | 73 | 267 | 7.0 | 12.2 | 0.00 | 0.00 | 0.00 | 37 | 1005.9 |
| 20260504150334 | 73 | 236 | 7.0 | 12.2 | 0.00 | 0.00 | 0.00 | 37 | 1005.9 |
| 20260504141314 | 63 | 236 | 4.3 | 7.8 | 0.00 | 0.00 | 0.00 | 55 | 1006.1 |
| 20260504140424 | 62 | 258 | 5.2 | 7.0 | 0.00 | 0.00 | 0.00 | 56 | 1006.1 |
| 20260504140337 | 62 | 267 | 4.3 | 7.0 | 0.00 | 0.00 | 0.00 | 56 | 1006.1 |
| 20260504130410 | 49 | 263 | 4.3 | 8.7 | 0.00 | 0.00 | 0.00 | 72 | 1006.1 |
| 20260504130344 | 49 | 269 | 3.5 | 8.7 | 0.00 | 0.00 | 0.00 | 72 | 1006.1 |
| 20260504120313 | 41 | 285 | 7.8 | 9.6 | 0.00 | 0.00 | 0.00 | 79 | 1005.6 |
| 20260504110426 | 43 | 313 | 6.1 | 8.7 | 0.00 | 0.00 | 0.00 | 74 | 1005.7 |
| 20260504110318 | 43 | 316 | 5.2 | 7.8 | 0.00 | 0.00 | 0.00 | 74 | 1005.6 |
| 20260504100431 | 44 | 26 | 4.3 | 8.7 | 0.00 | 0.00 | 0.00 | 74 | 1006.1 |
| 20260504100322 | 44 | 42 | 6.1 | 8.7 | 0.00 | 0.00 | 0.00 | 74 | 1006.1 |
| 20260504081427 | 43 | 245 | 7.0 | 7.8 | 0.00 | 0.00 | 0.00 | 76 | 1006.8 |
| 20260504081317 | 43 | 243 | 7.0 | 7.8 | 0.00 | 0.00 | 0.00 | 75 | 1006.9 |
| 20260504080425 | 43 | 246 | 5.2 | 7.0 | 0.00 | 0.00 | 0.00 | 73 | 1006.9 |
| 20260504080315 | 44 | 243 | 4.3 | 7.0 | 0.00 | 0.00 | 0.00 | 73 | 1006.9 |
| 20260504070324 | 46 | 282 | 4.3 | 6.1 | 0.00 | 0.00 | 0.00 | 64 | 1007.7 |
| 20260504050441 | 57 | 77 | 7.8 | 9.6 | 0.00 | 0.00 | 0.00 | 50 | 1007.8 |
| 20260504050313 | 57 | 90 | 7.8 | 9.6 | 0.00 | 0.00 | 0.00 | 50 | 1007.8 |
| 20260504045425 | 57 | 87 | 7.8 | 9.6 | 0.00 | 0.00 | 0.00 | 49 | 1007.9 |
| 20260504045316 | 57 | 81 | 7.8 | 9.6 | 0.00 | 0.00 | 0.00 | 49 | 1007.8 |
| 20260504044408 | 57 | 61 | 7.8 | 10.4 | 0.00 | 0.00 | 0.00 | 49 | 1007.8 |
| 20260504044342 | 57 | 95 | 7.8 | 10.4 | 0.00 | 0.00 | 0.00 | 49 | 1007.7 |
| 20260504043411 | 57 | 86 | 8.7 | 10.4 | 0.00 | 0.00 | 0.00 | 49 | 1007.9 |
| 20260504043324 | 57 | 78 | 8.7 | 10.4 | 0.00 | 0.00 | 0.00 | 49 | 1007.9 |
| 20260504042415 | 56 | 97 | 7.0 | 9.6 | 0.00 | 0.00 | 0.00 | 47 | 1008.0 |
| 20260504042311 | 56 | 83 | 7.0 | 9.6 | 0.00 | 0.00 | 0.00 | 47 | 1008.0 |
| 20260504041422 | 57 | 125 | 6.1 | 9.6 | 0.00 | 0.00 | 0.00 | 46 | 1008.1 |
| 20260504041314 | 57 | 69 | 6.1 | 9.6 | 0.00 | 0.00 | 0.00 | 46 | 1008.1 |
| 20260504040426 | 58 | 98 | 7.0 | 8.7 | 0.00 | 0.00 | 0.00 | 43 | 1008.1 |
| 20260504040316 | 58 | 92 | 7.0 | 8.7 | 0.00 | 0.00 | 0.00 | 42 | 1008.1 |
| 20260504035449 | 60 | 88 | 7.8 | 10.4 | 0.00 | 0.00 | 0.00 | 39 | 1008.1 |
| 20260504035320 | 60 | 70 | 7.8 | 10.4 | 0.00 | 0.00 | 0.00 | 39 | 1008.1 |
| 20260504034411 | 61 | 76 | 8.7 | 10.4 | 0.00 | 0.00 | 0.00 | 37 | 1008.2 |
| 20260504034324 | 61 | 88 | 8.7 | 10.4 | 0.00 | 0.00 | 0.00 | 37 | 1008.1 |
| 20260504033419 | 62 | 84 | 8.7 | 10.4 | 0.00 | 0.00 | 0.00 | 34 | 1008.2 |
| 20260504033313 | 62 | 81 | 8.7 | 10.4 | 0.00 | 0.00 | 0.00 | 34 | 1008.1 |
| 20260504032424 | 63 | 86 | 7.8 | 10.4 | 0.00 | 0.00 | 0.00 | 32 | 1008.1 |
| 20260504032317 | 63 | 84 | 7.8 | 10.4 | 0.00 | 0.00 | 0.00 | 32 | 1008.1 |
| 20260504031427 | 64 | 76 | 7.0 | 10.4 | 0.00 | 0.00 | 0.00 | 29 | 1008.1 |
| 20260504031318 | 63 | 63 | 7.0 | 10.4 | 0.00 | 0.00 | 0.00 | 29 | 1008.0 |
| 20260504030409 | 64 | 67 | 4.3 | 7.0 | 0.00 | 0.00 | 0.00 | 30 | 1007.9 |
| 20260504030318 | 64 | 69 | 3.5 | 7.0 | 0.00 | 0.00 | 0.00 | 30 | 1008.0 |
| 20260504025429 | 64 | 76 | 4.3 | 7.8 | 0.00 | 0.00 | 0.00 | 29 | 1007.9 |
| 20260504025325 | 64 | 68 | 5.2 | 7.8 | 0.00 | 0.00 | 0.00 | 29 | 1007.9 |
| 20260504024414 | 65 | 75 | 4.3 | 8.7 | 0.00 | 0.00 | 0.00 | 30 | 1007.9 |
| 20260504024326 | 65 | 92 | 4.3 | 8.7 | 0.00 | 0.00 | 0.00 | 32 | 1007.9 |
| 20260504023417 | 65 | 59 | 8.7 | 8.7 | 0.00 | 0.00 | 0.00 | 29 | 1007.8 |
| 20260504023330 | 65 | 57 | 7.8 | 8.7 | 0.00 | 0.00 | 0.00 | 29 | 1007.8 |
| 20260504022416 | 66 | 61 | 7.8 | 8.7 | 0.00 | 0.00 | 0.00 | 30 | 1007.8 |
| 20260504022329 | 66 | 60 | 7.8 | 8.7 | 0.00 | 0.00 | 0.00 | 30 | 1007.8 |
| 20260504021420 | 67 | 66 | 6.1 | 8.7 | 0.00 | 0.00 | 0.00 | 30 | 1007.8 |
| 20260504021337 | 67 | 76 | 5.2 | 7.8 | 0.00 | 0.00 | 0.00 | 29 | 1007.8 |
| 20260504020427 | 68 | 62 | 4.3 | 7.8 | 0.00 | 0.00 | 0.00 | 28 | 1007.7 |
| 20260504020333 | 68 | 86 | 4.3 | 7.8 | 0.00 | 0.00 | 0.00 | 28 | 1007.7 |
| 20260504015423 | 69 | 60 | 6.1 | 7.8 | 0.00 | 0.00 | 0.00 | 27 | 1007.6 |
| 20260504015317 | 69 | 57 | 6.1 | 7.8 | 0.00 | 0.00 | 0.00 | 27 | 1007.5 |
| 20260504014425 | 69 | 60 | 7.0 | 7.8 | 0.00 | 0.00 | 0.00 | 28 | 1007.6 |
| 20260504014318 | 69 | 61 | 6.1 | 7.8 | 0.00 | 0.00 | 0.00 | 28 | 1007.5 |
| 20260504013450 | 70 | 67 | 2.6 | 3.5 | 0.00 | 0.00 | 0.00 | 28 | 1007.6 |
| 20260504013322 | 70 | 47 | 3.5 | 3.5 | 0.00 | 0.00 | 0.00 | 28 | 1007.6 |
| 20260504012413 | 71 | 51 | 2.6 | 5.2 | 0.00 | 0.00 | 0.00 | 27 | 1007.7 |
| 20260504012328 | 71 | 40 | 2.6 | 5.2 | 0.00 | 0.00 | 0.00 | 27 | 1007.7 |